Great Falls, MT

12:06 PM MDT on April 25, 2017 (GMT -0600)
Great Falls International

Weather History for KGTF - January, 2013

Change the Weather History Date:

Thursday, January 17, 2013

  Actual Average Record
Temperature  
Mean Temperature 39 °F 25 °F  
Max Temperature 45 °F 36 °F 61 °F (1914)
Min Temperature 32 °F 15 °F -29 °F (1930)
Degree Days  
Heating Degree Days 26 40  
Month to date heating degree days 631 685  
Since 1 July heating degree days 3454 3902  
Cooling Degree Days 0 0  
Month to date cooling degree days 0 0  
Year to date cooling degree days 0 0  
Moisture  
Dew Point 21 °F    
Average Humidity 52    
Maximum Humidity 64    
Minimum Humidity 40    
Precipitation  
Precipitation 0.00 in 0.02 in 0.47 in (1954)
Month to date precipitation 0.49 0.29  
Year to date precipitation 0.49 0.29  
Snow  
Snow 0.00 in 0.20 in 4.50 in (1954)
Month to date snowfall 8.1 4.9  
Since 1 July snowfall 40.4 28.1  
Snow Depth 3.00 in    
Sea Level Pressure  
Sea Level Pressure 30.22 in    
Wind  
Wind Speed 21 mph (SW)    
Max Wind Speed 36 mph    
Max Gust Speed 43 mph    
Visibility 10 miles    
Events      
T = Trace of Precipitation, MM = Missing Value Source: NWS Daily Summary

Daily Weather History Graph

Daily Weather History Graph

Search for Another Location

Airport or City:

Trip Planner

Search our weather history database for the weather conditions in past years. The results will help you decide how hot, cold, wet, or windy it might be!

Date:

Astronomy

Jan. 17, 2013 Rise Set
Actual Time 8:06 AM MST 5:05 PM MST
Civil Twilight 7:32 AM MST 5:39 PM MST
Nautical Twilight 6:54 AM MST 6:17 PM MST
Astronomical Twilight 6:17 AM MST 6:54 PM MST
Moon 10:44 AM MST (1/17) No Moon Set
Length of Visible Light 10h 06m
Length of Day
8h 58m
Waxing Crescent, 38% of the Moon is Illuminated
Jan 17
Waxing Crescent
Jan 18
First Quarter
Jan 26
Full
Feb 3
Last Quarter
Feb 10
New

Hourly Weather History & Observations

Time (MST) Temp. Windchill Dew Point Humidity Pressure Visibility Wind Dir Wind Speed Gust Speed Precip Events Conditions
12:53 AM 34.0 °F 24.6 °F 23.0 °F 64% 30.36 in 10.0 mi SSW 13.8 mph - N/A   Clear
1:53 AM 36.0 °F 27.1 °F 21.0 °F 55% 30.34 in 10.0 mi SW 13.8 mph - N/A   Clear
2:53 AM 36.0 °F 26.3 °F 21.0 °F 55% 30.35 in 10.0 mi SW 16.1 mph - N/A   Clear
3:53 AM 35.1 °F 25.9 °F 19.9 °F 54% 30.34 in 10.0 mi SW 13.8 mph - N/A   Clear
4:53 AM 37.9 °F 27.9 °F 19.9 °F 48% 30.32 in 10.0 mi SW 19.6 mph - N/A   Clear
5:53 AM 37.0 °F 27.4 °F 19.0 °F 48% 30.30 in 10.0 mi SW 17.3 mph - N/A   Clear
6:53 AM 37.0 °F 27.0 °F 18.0 °F 46% 30.30 in 10.0 mi SW 18.4 mph - N/A   Clear
7:53 AM 37.0 °F 26.7 °F 18.0 °F 46% 30.30 in 10.0 mi SW 19.6 mph - N/A   Clear
8:53 AM 37.0 °F 26.7 °F 19.0 °F 48% 30.31 in 10.0 mi SSW 19.6 mph - N/A   Clear
9:53 AM 39.2 °F 29.3 °F 19.4 °F 45% 30.21 in 10.0 mi SSW 20.7 mph - N/A   Clear
10:53 AM 41.0 °F 30.9 °F 19.9 °F 43% 30.29 in 10.0 mi SW 24.2 mph - N/A   Clear
11:53 AM 43.0 °F 33.8 °F 21.0 °F 42% 30.25 in 10.0 mi SW 23.0 mph - N/A   Clear
12:53 PM 43.0 °F 34.0 °F 21.0 °F 42% 30.22 in 10.0 mi SW 21.9 mph 28.8 mph N/A   Clear
1:53 PM 44.1 °F 36.2 °F 23.0 °F 43% 30.19 in 10.0 mi SW 18.4 mph - N/A   Clear
2:53 PM 43.0 °F 35.1 °F 24.1 °F 47% 30.17 in 10.0 mi SW 17.3 mph - N/A   Clear
3:53 PM 43.0 °F 35.4 °F 25.0 °F 49% 30.16 in 10.0 mi SSW 16.1 mph - N/A   Clear
4:53 PM 43.0 °F 33.5 °F 24.1 °F 47% 30.13 in 10.0 mi SW 24.2 mph - N/A   Clear
5:53 PM 43.0 °F 32.9 °F 24.1 °F 47% 30.12 in 10.0 mi SW 27.6 mph - N/A   Clear
6:53 PM 42.1 °F 32.6 °F 24.1 °F 49% 30.12 in 10.0 mi SW 23.0 mph - N/A   Clear
7:53 PM 44.1 °F 35.2 °F 23.0 °F 43% 30.13 in 10.0 mi WSW 23.0 mph - N/A   Clear
8:53 PM 45.0 °F 35.8 °F 21.9 °F 40% 30.11 in 10.0 mi SW 26.5 mph 39.1 mph N/A   Clear
9:53 PM 44.1 °F 35.2 °F 21.9 °F 42% 30.08 in 10.0 mi SW 23.0 mph 33.4 mph N/A   Clear
10:53 PM 44.1 °F 33.5 °F 21.0 °F 40% 30.03 in 10.0 mi SW 33.4 mph 42.6 mph N/A   Clear
11:53 PM 43.0 °F 33.8 °F 21.0 °F 42% 30.06 in 10.0 mi SW 23.0 mph - N/A   Clear